******************************************************************************* JPL/HORIZONS 73P-Y/Schwassmann-Wachmann 3 2025-Dec-12 18:04:07 Rec #:90000764 (+COV) Soln.date: 2022-Sep-22_09:17:25 # obs: 15 (34 days) IAU76/J2000 helio. ecliptic osc. elements (au, days, deg., period=Julian yrs): EPOCH= 2453828.5 ! 2006-Apr-03.0000000 (TDB) RMSW= n.a. EC= .7181092228730851 QR= .9391640401643984 TP= 2453895.1041235677 OM= 70.62872750928277 W= 198.0116349251147 IN= 11.55279604807981 A= 3.331659338899056 MA= 349.2052072433834 ADIST= 5.724154637633713 PER= 6.0813372011156 N= .16207394 ANGMOM= .021851314 DAN= 5.08885 DDN= .9588 L= 268.2983689 B= -3.5503564 MOID= .0421736 TP= 2006-Jun-08.6041235677 Comet physical (GM= km^3/s^2; RAD= km): GM= n.a. RAD= n.a. M1= 23.8 M2= n.a. k1= 4.5 k2= n.a. PHCOF= n.a. COMET comments 1: soln ref.= JPL#4, data arc: 2006-03-23 to 2006-04-26 2: k1=4.5; ******************************************************************************* ******************************************************************************* Ephemeris / WWW_USER Fri Dec 12 18:04:07 2025 Pasadena, USA / Horizons ******************************************************************************* Target body name: 73P-Y/Schwassmann-Wachmann 3 {source: JPL#4} Center body name: Earth (399) {source: DE441} Center-site name: GEOCENTRIC ******************************************************************************* Start time : A.D. 2022-Aug-25 00:00:00.0000 UT Stop time : A.D. 2022-Aug-26 00:00:00.0000 UT Step-size : 2880 minutes ******************************************************************************* Target pole/equ : undefined Target radii : undefined Center geodetic : 0.0, 0.0, -6378.137 {E-lon(deg),Lat(deg),Alt(km)} Center cylindric: 0.0, 0.0, 0.0 {E-lon(deg),Dxy(km),Dz(km)} Center pole/equ : ITRF93 {East-longitude positive} Center radii : 6378.137, 6378.137, 6356.752 km {Equator_a, b, pole_c} Target primary : Sun Vis. interferer : MOON (R_eq= 1737.400) km {source: DE441} Rel. light bend : Sun {source: DE441} Rel. lght bnd GM: 1.3271E+11 km^3/s^2 Small-body perts: Yes {source: SB441-N16} Atmos refraction: NO (AIRLESS) RA format : HMS Time format : CAL Calendar mode : Mixed Julian/Gregorian EOP file : eop.251212.p260310 EOP coverage : DATA-BASED 1962-JAN-20 TO 2025-DEC-12. PREDICTS-> 2026-MAR-09 Units conversion: 1 au= 149597870.700 km, c= 299792.458 km/s, 1 day= 86400.0 s Table cut-offs 1: Elevation (-90.0deg=NO ),Airmass (>38.000=NO), Daylight (NO ) Table cut-offs 2: Solar elongation ( 0.0,180.0=NO ),Local Hour Angle( 0.0=NO ) Table cut-offs 3: RA/DEC angular rate ( 0.0=NO ) ******************************************************************************* Initial IAU76/J2000 heliocentric ecliptic osculating elements (au, days, deg.): EPOCH= 2453828.5 ! 2006-Apr-03.0000000 (TDB) RMSW= n.a. EC= .7181092228730851 QR= .9391640401643984 TP= 2453895.1041235677 OM= 70.62872750928277 W= 198.0116349251147 IN= 11.55279604807981 Equivalent ICRF heliocentric cartesian coordinates (au, au/d): X=-1.267857978011952E+00 Y=-4.198894791317161E-01 Z= 5.766534162112938E-02 VX= 1.299299687957598E-02 VY=-1.073386521661408E-02 VZ=-8.358077581939408E-03 Comet physical (GM= km^3/s^2; RAD= km): GM= n.a. RAD= n.a. M1= 23.8 M2= n.a. k1= 4.5 k2= n.a. PHCOF= n.a. ******************************************************************************************************* Date__(UT)__HR:MN r rdot delta deldot RNG_3sigma RNGRT_3sig ******************************************************************************************************* $$SOE 2022-Aug-25 00:00 5.308014761922 -4.1800450 6.01914451398466 -22.9714367 80194906.8 3.7455050 $$EOE ******************************************************************************************************* Column meaning: TIME Times PRIOR to 1962 are UT1, a mean-solar time closely related to the prior but now-deprecated GMT. Times AFTER 1962 are in UTC, the current civil or "wall-clock" time-scale. UTC is kept within 0.9 seconds of UT1 using integer leap-seconds for 1972 and later years. Conversion from the internal Barycentric Dynamical Time (TDB) of solar system dynamics to the non-uniform civil UT time-scale requested for output has not been determined for UTC times after the next July or January 1st. Therefore, the last known leap-second is used as a constant over future intervals. Time tags refer to the UT time-scale conversion from TDB on Earth regardless of observer location within the solar system, although clock rates may differ due to the local gravity field and no analog to "UT" may be defined for that location. Any 'b' symbol in the 1st-column denotes a B.C. date. First-column blank (" ") denotes an A.D. date. CALENDAR SYSTEM Mixed calendar mode was active such that calendar dates after AD 1582-Oct-15 (if any) are in the modern Gregorian system. Dates prior to 1582-Oct-5 (if any) are in the Julian calendar system, which is automatically extended for dates prior to its adoption on 45-Jan-1 BC. The Julian calendar is useful for matching historical dates. The Gregorian calendar more accurately corresponds to the Earth's orbital motion and seasons. A "Gregorian-only" calendar mode is available if such physical events are the primary interest. NOTE: "n.a." in output means quantity "not available" at the print-time. STATISTICAL UNCERTAINTIES Output includes formal +/- 3 standard-deviation statistical orbit uncertainty quantities. There is a 99.7% (1-D) or 98.9% (2-D) chance the actual value is within given bounds. These statistical calculations assume observational data errors are random. If there are systematic biases (such as timing, reduction or star-catalog errors), results can be optimistic. Because the epoch covariance is mapped using linearized variational partial derivatives, results can also be optimistic for times far from the solution epoch, particularly for objects having close planetary encounters. 'r rdot' = The Sun's apparent range ("r", light-time aberrated) and range-rate ("rdot") relative to the target center, as seen by the observer. A positive "rdot" means the target center was moving away from the Sun, negative means moving toward the Sun. Units: AU and KM/S 'delta deldot' = Apparent range ("delta", light-time aberrated) and range-rate ("delta-dot") of the target center relative to the observer. A positive "deldot" means the target center is moving away from the observer, negative indicates movement toward the observer. Units: AU and KM/S 'RNG_3sigma RNGRT_3sig' = Range and range rate (radial velocity) formal 3-standard-deviation uncertainties. Units: KM, KM/S Computations by ... Solar System Dynamics Group, Horizons On-Line Ephemeris System 4800 Oak Grove Drive, Jet Propulsion Laboratory Pasadena, CA 91109 USA General site: https://ssd.jpl.nasa.gov/ Mailing list: https://ssd.jpl.nasa.gov/email_list.html System news : https://ssd.jpl.nasa.gov/horizons/news.html User Guide : https://ssd.jpl.nasa.gov/horizons/manual.html Connect : browser https://ssd.jpl.nasa.gov/horizons/app.html#/x API https://ssd-api.jpl.nasa.gov/doc/horizons.html command-line telnet ssd.jpl.nasa.gov 6775 e-mail/batch https://ssd.jpl.nasa.gov/ftp/ssd/horizons_batch.txt scripts https://ssd.jpl.nasa.gov/ftp/ssd/SCRIPTS Author : Jon.D.Giorgini@jpl.nasa.gov ******************************************************************************************************* !$$SOF COMMAND = '73P-Y' QUANTITIES = '19,20,39' START_TIME = '2022-08-25' STEP_SIZE = '2 days' STOP_TIME = '2022-08-26'